This is the latest recevied weather packets stored in our database for station/object JA0ZJX-13. If no packets are shown the sender has not sent any weather packets the latest 10 day(s).
| Time | Temp. | Humidity | Pressure | Rain* | Wind** | Luminosity | Snow |
|---|---|---|---|---|---|---|---|
| 1777181620 | 22.78° C | 37% | 1013.2 hPa | 0 mm | - | 626 W/m² | - |
| 1777181010 | 22.78° C | 38% | 1013.3 hPa | 0 mm | - | 462 W/m² | - |
| 1777180424 | 22.78° C | 37% | 1013.5 hPa | 0 mm | - | 548 W/m² | - |
| 1777179813 | 22.78° C | 35% | 1013.8 hPa | 0 mm | - | 853 W/m² | - |
| 1777179223 | 22.78° C | 35% | 1013.8 hPa | 0 mm | - | 853 W/m² | - |
| 1777178616 | 22.22° C | 35% | 1013.9 hPa | 0 mm | - | 858 W/m² | - |
| 1777178025 | 22.78° C | 35% | 1014.2 hPa | 0 mm | - | 888 W/m² | - |
| 1777177413 | 22.78° C | 34% | 1014.3 hPa | 0 mm | - | 854 W/m² | - |
| 1777176821 | 22.22° C | 34% | 1014.5 hPa | 0 mm | - | 884 W/m² | - |
| 1777176214 | 22.22° C | 37% | 1014.7 hPa | 0 mm | - | 867 W/m² | - |
| 1777175624 | 21.67° C | 38% | 1014.7 hPa | 0 mm | - | 921 W/m² | - |
| 1777175013 | 21.67° C | 43% | 1014.9 hPa | 0 mm | - | 888 W/m² | - |
| 1777174423 | 21.67° C | 45% | 1014.9 hPa | 0 mm | - | 1014 W/m² | - |
| 1777173817 | 21.11° C | 42% | 1015.2 hPa | 0 mm | - | 969 W/m² | - |
| 1777173206 | 21.11° C | 36% | 1015.2 hPa | 0 mm | - | 752 W/m² | - |
| 1777172616 | 20.56° C | 35% | 1015.5 hPa | 0 mm | - | 976 W/m² | - |
| 1777172010 | 20.56° C | 38% | 1015.7 hPa | 0 mm | - | 984 W/m² | - |
| 1777171419 | 20.56° C | 37% | 1016 hPa | 0 mm | - | 991 W/m² | - |
| 1777170807 | 20.56° C | 39% | 1016.3 hPa | 0 mm | - | 1027 W/m² | - |
| 1777170217 | 20° C | 39% | 1016.7 hPa | 0 mm | - | 995 W/m² | - |
| 1777169610 | 20° C | 42% | 1016.8 hPa | 0 mm | - | 946 W/m² | - |
| 1777169019 | 19.44° C | 47% | 1017 hPa | 0 mm | - | 988 W/m² | - |
| 1777168408 | 19.44° C | 49% | 1017.3 hPa | 0 mm | - | 970 W/m² | - |
| 1777167817 | 18.89° C | 46% | 1017.6 hPa | 0 mm | - | 919 W/m² | - |
| 1777167211 | 18.89° C | 51% | 1017.8 hPa | 0 mm | - | 914 W/m² | - |
* Rain latest hour (hover to see other rain measurements)
** Current wind speed in m/s (hover to see current wind gust speed)